Location: Eindhoven
(51.4416°N, 5.4697°E)
Time: 13:07:21
(UTC+01:00)

Envisat - Visible Passes

Search period start: 23 February 2019 00:00
Search period end: 05 March 2019 00:00
Orbit: 764 x 766 km, 98.2° (Epoch: 23 February)

Date Brightness Start Highest point End Pass type
(mag) Time Alt. Az. Time Alt. Az. Time Alt. Az.
23 Feb 6.3 06:45:42 10° NE 06:48:17 14° E 06:50:52 10° ESE visible
23 Feb 4.2 19:43:10 10° S 19:48:02 45° W 19:52:56 10° NNW visible
24 Feb 3.0 19:06:05 10° SSE 19:11:11 88° W 19:16:19 10° NNW visible
24 Feb 6.0 20:48:11 10° WSW 20:50:58 15° W 20:53:46 10° NW visible
25 Feb 5.1 20:09:24 10° SSW 20:13:46 28° W 20:18:09 10° NNW visible
26 Feb 6.6 06:35:27 10° ENE 06:36:53 11° E 06:38:20 10° E visible
26 Feb 3.8 19:31:47 10° S 19:36:46 55° W 19:41:47 10° NNW visible
27 Feb 3.0 18:54:54 10° SSE 18:59:58 77° ENE 19:05:05 10° NNW visible
27 Feb 5.8 20:36:11 10° SW 20:39:36 18° W 20:43:02 10° NW visible
28 Feb 4.7 19:57:51 10° SSW 20:02:27 34° W 20:07:06 10° NNW visible
01 Mar 3.4 19:20:28 10° S 19:25:31 68° WSW 19:30:37 10° NNW visible
01 Mar 6.2 21:04:21 10° W 21:05:32 11° W 21:06:44 10° WNW visible
02 Mar 3.0 18:43:46 10° SSE 18:48:47 64° ENE 18:53:49 10° N visible
02 Mar 5.5 20:24:22 10° SW 20:28:15 22° W 20:32:10 10° NW visible
03 Mar 4.4 19:46:23 10° SSW 19:51:10 42° W 19:56:01 10° NNW visible
04 Mar 3.1 19:09:12 10° SSE 19:14:18 82° WSW 19:19:25 10° NNW visible
04 Mar 6.0 20:51:41 10° WSW 20:54:08 13° W 20:56:38 10° NW visible
